period_start,C,m1,H,J0,J1,J2,J3,J4,J5,JA,JB,JC,JD,JJ,JK,JN,#
2015-12-10 00:02:39,0.14,9.21,0.00,13.19,17.65,21.70,15.20,52.52,1018.86,2064.99,1382.16,1604.04,1790.03,599.97,617.72,43.26,0000 0000 0000 0000 000000
2015-12-10 00:07:40,0.17,9.22,0.00,13.19,17.65,21.73,15.16,52.48,1018.72,2064.99,1381.33,1603.37,1789.24,600.00,617.71,43.31,0000 0000 0000 0000 000000
2015-12-10 00:12:42,0.04,9.22,0.00,13.19,17.65,21.66,15.18,52.44,1018.59,2064.99,1380.96,1602.97,1788.72,599.84,617.46,43.36,0000 0000 0000 0000 000000
2015-12-10 00:17:43,0.16,9.23,0.00,13.18,17.65,21.68,15.20,52.26,1018.63,2064.99,1380.13,1602.15,1787.97,600.05,617.58,43.41,0000 0000 0000 0000 000000
2015-12-10 00:22:44,0.12,9.23,0.00,13.21,17.66,21.64,15.18,52.27,1018.60,2064.99,1379.52,1601.75,1787.14,599.64,617.17,43.46,0000 0000 0000 0000 000000
2015-12-10 00:27:45,0.10,9.24,0.00,13.19,17.66,21.63,15.20,52.31,1018.57,2064.99,1378.86,1601.02,1786.63,599.97,617.66,43.51,0000 0000 0000 0000 000000
2015-12-10 00:32:47,0.12,9.25,0.00,13.22,17.67,21.71,15.25,52.33,1018.57,2064.99,1378.05,1600.51,1785.96,599.84,617.43,43.56,0000 0000 0000 0000 000000
2015-12-10 00:37:48,0.12,9.25,0.00,13.23,17.67,21.61,15.15,52.27,1018.57,2064.99,1377.28,1599.97,1785.13,599.75,617.38,43.61,0000 0000 0000 0000 000000
2015-12-10 00:42:49,0.14,9.26,0.00,13.24,17.67,21.62,15.27,52.33,1018.57,2064.99,1376.64,1599.17,1784.57,600.05,617.58,43.66,0000 0000 0000 0000 000000
2015-12-10 00:47:51,0.04,9.27,0.00,13.23,17.67,21.71,15.23,52.23,1018.57,2064.99,1375.97,1598.97,1783.98,600.05,617.58,43.71,0000 0000 0000 0000 000000
2015-12-10 00:52:52,0.17,9.27,0.00,13.24,17.66,21.73,15.15,52.19,1018.57,2064.99,1375.17,1598.22,1783.19,600.05,617.59,43.76,0000 0000 0000 0000 000000
2015-12-10 00:57:54,0.13,9.28,0.00,13.23,17.66,21.74,15.26,52.28,1018.57,2064.99,1374.31,1597.79,1782.49,599.97,617.65,43.81,0000 0000 0000 0000 000000
2015-12-10 01:02:55,0.11,9.28,0.00,13.18,17.65,21.62,15.24,52.19,1018.57,2064.99,1373.54,1597.04,1781.96,600.13,617.76,43.86,0000 0000 0000 0000 000000
2015-12-10 01:07:56,0.16,9.29,0.00,13.18,17.65,21.70,15.17,52.19,1018.57,2064.99,1372.67,1596.37,1781.11,600.04,617.72,43.91,0000 0000 0000 0000 000000
2015-12-10 01:12:58,0.07,9.30,0.00,13.20,17.65,21.71,15.28,52.33,1018.57,2064.99,1372.01,1595.97,1780.53,600.14,617.76,43.97,0000 0000 0000 0000 000000
2015-12-10 01:17:59,0.14,9.30,0.00,13.17,17.65,21.68,15.19,52.27,1018.57,2065.00,1371.32,1595.17,1779.91,599.84,617.61,44.02,0000 0000 0000 0000 000000
2015-12-10 01:23:01,0.16,9.31,0.00,13.17,17.65,21.77,15.22,52.30,1018.48,2065.00,1370.16,1594.66,1778.97,600.11,617.79,44.07,0000 0000 0000 0000 000000
2015-12-10 01:28:02,0.62,9.33,0.00,13.13,17.65,21.68,15.21,52.36,1018.36,2065.00,1366.51,1592.84,1777.15,599.77,617.41,44.12,0000 0000 0000 0000 000000
2015-12-10 01:33:03,0.76,9.37,0.00,13.13,17.65,21.69,15.22,52.24,1018.46,2065.00,1360.83,1590.11,1774.10,600.06,617.73,44.17,0000 0000 0000 0000 000000
2015-12-10 01:38:04,0.59,9.40,0.00,13.35,17.65,21.64,15.13,52.21,1018.46,2065.00,1355.99,1587.65,1771.18,599.84,617.04,44.22,0000 0000 0000 0000 000000
2015-12-10 01:43:06,0.32,9.43,0.00,13.31,17.63,21.69,15.29,52.09,1018.48,2065.00,1353.13,1586.13,1769.46,600.36,617.64,44.27,0000 0000 0000 0000 000000
2015-12-10 01:48:07,0.30,9.44,0.00,13.22,17.58,21.66,15.22,52.02,1018.48,2065.00,1350.90,1584.90,1768.09,599.71,617.28,44.32,0000 0000 0000 0000 000000
2015-12-10 01:53:08,0.41,9.46,0.00,13.22,17.53,21.53,15.16,51.81,1018.34,2065.00,1348.31,1583.61,1766.65,600.16,617.60,44.37,0000 0000 0000 0000 000000
2015-12-10 01:58:09,0.28,9.48,0.00,13.21,17.49,21.49,15.14,51.81,1018.17,2065.03,1345.96,1582.47,1765.30,599.70,617.07,44.42,0000 0000 0000 0000 000000
2015-12-10 02:03:11,0.28,9.49,0.00,13.14,17.44,21.39,15.17,51.67,1018.09,2065.22,1344.33,1581.47,1764.29,600.16,617.48,44.47,0000 0000 0000 0000 000000
2015-12-10 02:08:12,0.39,9.51,0.00,13.05,17.38,21.35,15.15,51.69,1018.08,2065.90,1342.34,1580.38,1762.93,600.02,617.62,44.52,0000 0000 0000 0000 000000
2015-12-10 02:13:13,0.11,9.52,0.00,12.92,17.33,21.23,15.19,51.50,1018.08,2065.98,1341.10,1579.91,1762.05,600.24,618.13,44.57,0000 0000 0000 0000 000000
2015-12-10 02:18:14,0.08,9.52,0.00,12.82,17.28,21.14,15.23,51.69,1018.08,2065.99,1340.78,1579.22,1761.97,599.74,617.92,44.62,0000 0000 0000 0000 000000
2015-12-10 02:23:15,0.10,9.53,0.00,12.72,17.23,21.15,15.21,51.63,1018.08,2066.03,1340.06,1579.00,1761.28,599.81,618.09,44.67,0000 0000 0000 0000 000000
2015-12-10 02:28:17,0.16,9.53,0.00,12.64,17.18,21.12,15.26,51.67,1018.04,2066.45,1339.63,1578.73,1761.00,599.94,618.49,44.72,0000 0000 0000 0000 000000
2015-12-10 02:33:18,0.15,9.54,0.00,12.56,17.13,21.19,15.22,51.58,1018.03,2066.94,1339.00,1578.05,1760.54,600.01,618.71,44.77,0000 0000 0000 0000 000000
2015-12-10 02:38:19,0.09,9.55,0.00,12.49,17.09,21.17,15.21,51.76,1017.80,2066.99,1338.18,1577.92,1760.02,599.87,618.55,44.82,0000 0000 0000 0000 000000
2015-12-10 02:43:20,0.13,9.55,0.00,12.45,17.04,21.10,15.25,51.84,1017.66,2066.99,1337.69,1577.14,1759.67,600.29,618.94,44.87,0000 0000 0000 0000 000000
2015-12-10 02:48:21,0.06,9.56,0.00,12.38,17.00,21.11,15.28,51.88,1017.60,2067.01,1337.02,1576.99,1759.03,599.87,618.66,44.93,0000 0000 0000 0000 000000
2015-12-10 02:53:22,0.18,9.56,0.00,12.35,16.96,21.02,15.24,51.86,1017.59,2067.13,1336.42,1576.30,1758.55,600.10,619.15,44.98,0000 0000 0000 0000 000000
2015-12-10 02:58:24,0.13,9.57,0.00,12.30,16.93,20.97,15.24,51.91,1017.59,2067.64,1335.79,1575.99,1758.00,600.22,619.21,45.03,0000 0000 0000 0000 000000
2015-12-10 03:03:25,0.18,9.58,0.00,12.26,16.89,20.95,15.19,51.85,1017.59,2067.94,1335.03,1575.37,1757.48,600.00,619.12,45.08,0000 0000 0000 0000 000000
2015-12-10 03:08:26,0.08,9.59,0.00,12.23,16.85,20.91,15.25,51.90,1017.58,2067.98,1334.40,1575.00,1756.99,599.67,618.91,45.13,0000 0000 0000 0000 000000
2015-12-10 03:13:28,0.13,9.59,0.00,12.23,16.82,20.93,15.23,51.83,1017.48,2067.99,1333.77,1574.43,1756.40,600.12,619.19,45.18,0000 0000 0000 0000 000000
2015-12-10 03:18:29,0.45,9.61,0.00,12.20,16.79,20.84,15.21,52.03,1017.32,2068.00,1331.41,1572.80,1754.67,599.54,618.55,45.23,0000 0000 0000 0000 000000
2015-12-10 03:23:30,0.25,9.63,0.00,12.18,16.76,20.80,15.21,51.93,1017.25,2068.06,1329.45,1571.63,1753.41,599.65,618.65,45.28,0000 0000 0000 0000 000000
2015-12-10 03:28:32,0.25,9.64,0.00,12.17,16.73,20.80,15.23,51.98,1017.19,2068.27,1327.86,1570.76,1752.41,599.95,618.94,45.33,0000 0000 0000 0000 000000
2015-12-10 03:33:33,0.30,9.66,0.00,12.18,16.70,20.72,15.31,52.10,1017.20,2068.72,1326.11,1569.75,1751.29,600.23,619.21,45.38,0000 0000 0000 0000 000000
2015-12-10 03:38:34,0.15,9.67,0.00,12.18,16.68,20.67,15.27,51.92,1017.14,2068.92,1325.47,1569.02,1750.41,599.79,618.80,45.43,0000 0000 0000 0000 000000
2015-12-10 03:43:36,0.19,9.68,0.00,12.19,16.65,20.67,15.32,52.02,1017.23,2068.96,1324.18,1568.20,1749.59,599.86,618.91,45.48,0000 0000 0000 0000 000000
2015-12-10 03:48:37,0.06,9.68,0.00,12.19,16.63,20.69,15.24,51.75,1017.27,2068.97,1323.71,1567.87,1748.97,600.23,619.26,45.53,0000 0000 0000 0000 000000
2015-12-10 03:53:39,0.14,9.69,0.00,12.18,16.61,20.63,15.21,51.81,1017.38,2068.99,1322.99,1567.08,1748.20,600.20,619.32,45.58,0000 0000 0000 0000 000000
2015-12-10 03:58:40,0.10,9.69,0.00,12.17,16.58,20.60,15.17,51.79,1017.20,2068.99,1322.22,1566.83,1747.91,599.54,618.61,45.63,0000 0000 0000 0000 000000
2015-12-10 04:03:41,0.16,9.70,0.00,12.14,16.56,20.54,15.31,51.90,1017.20,2068.99,1321.44,1566.06,1747.09,599.99,619.05,45.68,0000 0000 0000 0000 000000
2015-12-10 04:08:43,0.06,9.71,0.00,12.14,16.53,20.50,15.23,51.94,1017.12,2068.99,1320.97,1565.80,1746.59,599.83,618.86,45.73,0000 0000 0000 0000 000000
2015-12-10 04:13:44,0.13,9.71,0.00,12.13,16.50,20.47,15.14,51.89,1017.12,2069.01,1320.15,1565.06,1746.00,599.73,618.75,45.78,0000 0000 0000 0000 000000
2015-12-10 04:18:45,0.12,9.72,0.00,12.10,16.47,20.42,15.25,51.84,1017.11,2069.04,1319.58,1564.74,1745.34,600.38,619.39,45.84,0000 0000 0000 0000 000000
2015-12-10 04:23:47,0.11,9.73,0.00,12.07,16.44,20.38,15.23,51.77,1017.11,2069.13,1318.88,1564.05,1744.96,600.27,619.52,45.89,0000 0000 0000 0000 000000
2015-12-10 04:28:48,0.18,9.73,0.00,12.08,16.41,20.34,15.28,51.94,1017.11,2069.45,1318.05,1563.66,1744.22,600.06,619.21,45.94,0000 0000 0000 0000 000000
2015-12-10 04:33:49,0.16,9.74,0.00,12.11,16.38,20.33,15.28,51.99,1017.11,2069.85,1317.29,1563.03,1743.95,600.01,619.09,45.99,0000 0000 0000 0000 000000
2015-12-10 04:38:50,0.12,9.75,0.00,12.08,16.35,20.33,15.24,52.02,1017.10,2069.98,1316.83,1562.68,1743.17,599.96,619.13,46.04,0000 0000 0000 0000 000000
2015-12-10 04:43:52,0.10,9.76,0.00,12.07,16.33,20.24,15.28,51.98,1017.06,2069.99,1316.04,1562.03,1742.81,600.13,619.26,46.09,0000 0000 0000 0000 000000
2015-12-10 04:48:53,0.15,9.76,0.00,12.05,16.31,20.23,15.21,51.96,1016.90,2069.99,1315.25,1561.58,1742.05,600.15,619.19,46.14,0000 0000 0000 0000 000000
2015-12-10 04:53:55,0.11,9.77,0.00,12.07,16.29,20.23,15.24,51.95,1016.86,2069.99,1314.58,1561.01,1741.56,600.05,619.04,46.19,0000 0000 0000 0000 000000
2015-12-10 04:58:56,0.08,9.77,0.00,12.04,16.27,20.24,15.27,52.02,1016.74,2070.00,1314.00,1560.57,1741.00,600.30,619.39,46.24,0000 0000 0000 0000 000000
2015-12-10 05:03:57,0.13,9.78,0.00,12.03,16.25,20.19,15.28,52.04,1016.80,2070.00,1313.24,1560.00,1740.24,600.12,619.20,46.29,0000 0000 0000 0000 000000
2015-12-10 05:08:59,0.06,9.78,0.00,12.04,16.24,20.18,15.19,51.92,1016.81,2070.04,1312.91,1559.62,1739.92,599.84,618.82,46.34,0000 0000 0000 0000 000000
2015-12-10 05:14:00,0.13,9.79,0.00,12.01,16.22,20.16,15.18,51.92,1016.74,2070.06,1312.08,1559.01,1739.13,600.19,619.23,46.39,0000 0000 0000 0000 000000
2015-12-10 05:19:01,0.18,9.80,0.00,11.99,16.22,20.21,15.21,51.99,1016.64,2070.13,1311.35,1558.45,1738.71,599.88,618.90,46.44,0000 0000 0000 0000 000000
2015-12-10 05:24:03,0.05,9.80,0.00,12.01,16.20,20.20,15.15,51.93,1016.62,2070.20,1310.78,1557.99,1738.02,599.69,618.70,46.49,0000 0000 0000 0000 000000
2015-12-10 05:29:04,0.19,9.81,0.00,12.02,16.19,20.17,15.23,52.13,1016.62,2070.33,1310.00,1557.25,1737.29,599.77,618.74,46.54,0000 0000 0000 0000 000000
2015-12-10 05:34:05,0.11,9.82,0.00,12.03,16.19,20.14,15.20,52.11,1016.62,2070.66,1309.25,1556.98,1736.91,599.99,618.95,46.59,0000 0000 0000 0000 000000
2015-12-10 05:39:07,0.15,9.83,0.00,12.03,16.19,20.14,15.23,52.17,1016.62,2070.75,1308.84,1556.25,1736.09,599.78,618.76,46.64,0000 0000 0000 0000 000000
2015-12-10 05:44:08,0.10,9.83,0.00,12.03,16.19,20.13,15.20,52.11,1016.62,2070.76,1308.07,1555.89,1735.64,599.82,618.75,46.70,0000 0000 0000 0000 000000
2015-12-10 05:49:10,0.10,9.84,0.00,12.04,16.18,20.13,15.21,52.15,1016.62,2070.77,1307.82,1555.11,1734.99,599.93,618.91,46.75,0000 0000 0000 0000 000000
2015-12-10 05:54:11,0.09,9.84,0.00,12.04,16.17,20.10,15.21,52.09,1016.62,2070.68,1307.04,1554.83,1734.22,600.24,619.15,46.80,0000 0000 0000 0000 000000
2015-12-10 05:59:13,0.17,9.85,0.00,12.03,16.17,20.11,15.23,52.14,1016.62,2070.72,1306.27,1554.09,1733.81,600.21,619.26,46.85,0000 0000 0000 0000 000000
2015-12-10 06:04:14,0.11,9.85,0.00,12.04,16.16,20.09,15.22,52.13,1016.62,2070.74,1305.63,1553.79,1733.04,599.93,618.78,46.90,0000 0000 0000 0000 000000
2015-12-10 06:09:15,0.12,9.86,0.00,12.03,16.14,20.09,15.19,51.96,1016.62,2070.88,1305.01,1553.06,1732.60,600.14,619.11,46.95,0000 0000 0000 0000 000000
2015-12-10 06:14:16,0.14,9.87,0.00,12.01,16.14,20.12,15.29,52.12,1016.61,2070.90,1304.20,1552.60,1732.00,600.24,619.26,47.00,0000 0000 0000 0000 000000
2015-12-10 06:19:18,0.13,9.87,0.00,12.01,16.12,20.11,15.22,51.94,1016.62,2070.84,1303.56,1552.01,1731.25,599.90,618.91,47.05,0000 0000 0000 0000 000000
2015-12-10 06:24:19,0.09,9.88,0.00,11.99,16.11,20.05,15.17,52.02,1016.62,2070.93,1302.87,1551.49,1730.88,599.62,618.59,47.10,0000 0000 0000 0000 000000
2015-12-10 06:29:20,0.12,9.89,0.00,12.00,16.09,20.08,15.24,52.31,1016.62,2070.97,1302.06,1551.00,1730.10,600.07,619.12,47.15,0000 0000 0000 0000 000000
2015-12-10 06:34:21,0.16,9.89,0.00,12.00,16.09,20.03,15.22,52.34,1016.62,2070.97,1301.41,1550.40,1729.60,600.30,619.32,47.20,0000 0000 0000 0000 000000
2015-12-10 06:39:22,0.04,9.90,0.00,11.99,16.09,20.01,15.27,52.39,1016.61,2070.98,1300.97,1549.99,1729.01,600.16,619.13,47.25,0000 0000 0000 0000 000000
2015-12-10 06:44:23,0.17,9.90,0.00,12.00,16.09,20.05,15.20,52.17,1016.60,2070.98,1300.25,1549.42,1728.45,599.93,618.97,47.30,0000 0000 0000 0000 000000
2015-12-10 06:49:25,0.07,9.91,0.00,11.99,16.09,20.04,15.21,52.18,1016.52,2070.98,1299.67,1548.97,1727.95,600.02,619.06,47.35,0000 0000 0000 0000 000000
2015-12-10 06:54:26,0.14,9.92,0.00,12.01,16.09,20.04,15.17,52.24,1016.46,2070.98,1298.99,1548.28,1727.22,599.96,618.75,47.40,0000 0000 0000 0000 000000
2015-12-10 06:59:27,0.07,9.92,0.00,11.98,16.09,20.02,15.20,52.13,1016.44,2070.99,1298.41,1547.99,1726.96,599.77,618.71,47.45,0000 0000 0000 0000 000000
2015-12-10 07:04:28,0.11,9.93,0.00,11.97,16.08,20.05,15.19,51.95,1016.41,2070.99,1297.96,1547.33,1726.18,599.89,618.89,47.50,0000 0000 0000 0000 000000
2015-12-10 07:09:29,0.09,9.93,0.00,11.98,16.08,20.01,15.22,52.03,1016.36,2070.99,1297.13,1546.98,1725.87,599.91,618.77,47.55,0000 0000 0000 0000 000000
2015-12-10 07:14:31,0.17,9.94,0.00,11.99,16.07,20.08,15.24,52.11,1016.27,2070.99,1296.40,1546.23,1725.07,599.77,618.63,47.61,0000 0000 0000 0000 000000
2015-12-10 07:19:32,0.04,9.94,0.00,12.01,16.07,20.04,15.19,52.13,1016.16,2070.99,1295.95,1545.95,1724.67,600.15,618.90,47.66,0000 0000 0000 0000 000000
2015-12-10 07:24:34,0.16,9.95,0.00,12.01,16.07,20.02,15.23,52.15,1016.16,2070.99,1295.14,1545.18,1724.01,599.93,618.66,47.71,0000 0000 0000 0000 000000
2015-12-10 07:29:35,0.09,9.96,0.00,12.02,16.07,20.01,15.25,52.12,1016.14,2070.98,1294.61,1544.95,1723.38,600.33,619.02,47.76,0000 0000 0000 0000 000000
2015-12-10 07:34:37,0.10,9.96,0.00,12.00,16.07,20.02,15.24,52.09,1016.14,2070.99,1293.95,1544.20,1722.94,599.99,618.71,47.81,0000 0000 0000 0000 000000
2015-12-10 07:39:38,0.13,9.97,0.00,11.98,16.07,20.05,15.16,52.05,1016.13,2070.99,1293.10,1543.85,1722.14,599.96,618.73,47.86,0000 0000 0000 0000 000000
2015-12-10 07:44:39,0.13,9.97,0.00,11.99,16.07,20.01,15.26,52.17,1016.13,2070.99,1292.64,1543.07,1721.77,600.40,619.09,47.91,0000 0000 0000 0000 000000
2015-12-10 07:49:41,0.06,9.98,0.00,12.00,16.07,20.01,15.20,52.11,1016.13,2070.99,1292.02,1542.87,1721.05,599.83,618.61,47.96,0000 0000 0000 0000 000000
2015-12-10 07:54:42,0.15,9.99,0.00,11.99,16.07,20.02,15.13,51.98,1016.13,2070.99,1291.48,1542.11,1720.51,599.61,618.35,48.01,0000 0000 0000 0000 000000
2015-12-10 07:59:43,0.08,9.99,0.00,11.98,16.07,20.06,15.20,52.02,1016.13,2070.99,1290.91,1541.72,1719.97,600.14,618.95,48.06,0000 0000 0000 0000 000000
2015-12-10 08:04:45,0.14,10.00,0.00,11.97,16.07,20.05,15.19,52.08,1016.13,2070.99,1290.13,1541.02,1719.20,599.67,618.63,48.11,0000 0000 0000 0000 000000
2015-12-10 08:09:46,0.15,10.00,0.00,12.00,16.07,20.02,15.25,52.11,1016.13,2070.99,1289.38,1540.58,1718.67,600.16,618.92,48.16,0000 0000 0000 0000 000000
2015-12-10 08:14:48,0.07,10.01,0.00,12.01,16.07,20.06,15.25,52.05,1016.12,2070.99,1288.78,1540.00,1718.00,600.15,618.83,48.21,0000 0000 0000 0000 000000
2015-12-10 08:19:49,0.16,10.02,0.00,11.98,16.07,20.02,15.19,52.01,1016.11,2070.99,1288.04,1539.40,1717.33,600.03,618.77,48.26,0000 0000 0000 0000 000000
2015-12-10 08:24:50,0.10,10.02,0.00,11.99,16.07,19.99,15.23,52.08,1015.98,2070.99,1287.34,1538.99,1716.85,599.81,618.47,48.31,0000 0000 0000 0000 000000
2015-12-10 08:29:52,0.16,10.03,0.00,12.00,16.06,20.00,15.17,52.10,1015.87,2070.99,1286.63,1538.20,1716.06,599.90,618.52,48.36,0000 0000 0000 0000 000000
2015-12-10 08:34:53,0.08,10.04,0.00,12.00,16.05,19.98,15.16,52.00,1015.78,2070.99,1285.95,1537.87,1715.53,600.19,618.66,48.41,0000 0000 0000 0000 000000
2015-12-10 08:39:54,0.15,10.04,0.00,12.00,16.05,20.01,15.21,52.16,1015.74,2070.99,1285.08,1537.11,1714.92,600.13,618.62,48.47,0000 0000 0000 0000 000000
2015-12-10 08:44:55,0.18,10.05,0.00,11.99,16.05,20.04,15.27,52.35,1015.71,2071.00,1284.13,1536.52,1714.10,600.42,618.90,48.52,0000 0000 0000 0000 000000
2015-12-10 08:49:57,0.12,10.06,0.00,11.98,16.04,20.03,15.17,52.09,1015.65,2071.00,1283.39,1536.00,1713.57,600.00,618.43,48.57,0000 0000 0000 0000 000000
2015-12-10 08:54:58,0.11,10.06,0.00,11.97,16.04,20.01,15.24,52.02,1015.64,2071.00,1282.79,1535.43,1712.98,600.18,618.69,48.62,0000 0000 0000 0000 000000
2015-12-10 08:59:59,0.11,10.07,0.00,11.97,16.04,20.00,15.19,52.16,1015.65,2071.00,1282.01,1535.00,1712.23,600.06,618.46,48.67,0000 0000 0000 0000 000000
2015-12-10 09:05:01,0.15,10.08,0.00,11.98,16.04,19.98,15.09,52.13,1015.64,2071.02,1281.19,1534.53,1711.76,599.89,618.39,48.72,0000 0000 0000 0000 000000
2015-12-10 09:10:02,0.09,10.08,0.00,11.98,16.04,19.97,15.22,52.17,1015.64,2071.00,1280.77,1533.98,1711.01,599.95,618.41,48.77,0000 0000 0000 0000 000000
2015-12-10 09:15:03,0.15,10.09,0.00,11.97,16.04,20.01,15.24,52.16,1015.64,2071.00,1280.05,1533.26,1710.19,600.09,618.61,48.82,0000 0000 0000 0000 000000
2015-12-10 09:20:05,0.14,10.10,0.00,11.98,16.04,20.01,15.19,52.08,1015.64,2071.00,1279.16,1532.76,1709.57,599.76,618.37,48.87,0000 0000 0000 0000 000000
2015-12-10 09:25:06,0.14,10.11,0.00,11.97,16.04,20.01,15.20,52.09,1015.64,2071.00,1278.23,1532.03,1708.97,600.03,618.62,48.92,0000 0000 0000 0000 000000
2015-12-10 09:30:07,0.13,10.11,0.00,11.99,16.04,19.98,15.14,52.22,1015.64,2071.01,1277.68,1531.43,1708.16,599.90,618.36,48.97,0000 0000 0000 0000 000000
2015-12-10 09:35:09,0.10,10.12,0.00,11.99,16.04,20.03,15.23,52.12,1015.62,2071.00,1277.13,1531.00,1707.60,599.98,618.47,49.02,0000 0000 0000 0000 000000
2015-12-10 09:40:10,0.16,10.12,0.00,11.99,16.04,19.97,15.27,52.13,1015.50,2071.00,1276.38,1530.31,1706.99,600.08,618.43,49.07,0000 0000 0000 0000 000000
2015-12-10 09:45:11,0.16,10.13,0.00,11.99,16.04,19.98,15.25,52.33,1015.28,2071.00,1275.32,1529.78,1706.19,600.20,618.39,49.12,0000 0000 0000 0000 000000
2015-12-10 09:50:13,0.07,10.14,0.00,11.99,16.04,20.04,15.27,52.35,1015.20,2071.01,1274.95,1529.07,1705.70,600.01,618.19,49.17,0000 0000 0000 0000 000000
2015-12-10 09:55:14,0.18,10.15,0.00,12.01,16.04,20.00,15.23,52.14,1015.18,2071.02,1273.92,1528.46,1705.01,599.88,618.04,49.22,0000 0000 0000 0000 000000
2015-12-10 10:00:15,0.10,10.15,0.00,11.99,16.04,19.99,15.21,52.08,1015.19,2071.02,1273.18,1528.00,1704.30,599.92,617.95,49.27,0000 0000 0000 0000 000000
2015-12-10 10:05:17,0.19,10.16,0.00,11.98,16.04,19.99,15.22,52.08,1015.16,2071.02,1272.34,1527.22,1703.58,600.33,618.49,49.32,0000 0000 0000 0000 000000
2015-12-10 10:10:18,0.14,10.17,0.00,12.00,16.04,20.04,15.28,52.21,1015.15,2071.01,1271.41,1526.59,1702.92,600.12,618.27,49.38,0000 0000 0000 0000 000000
2015-12-10 10:15:19,0.08,10.18,0.00,12.00,16.04,20.04,15.25,52.33,1015.15,2071.02,1270.88,1526.01,1702.10,600.12,618.21,49.43,0000 0000 0000 0000 000000
2015-12-10 10:20:20,0.18,10.18,0.00,11.99,16.05,20.05,15.25,52.30,1015.15,2071.03,1270.06,1525.37,1701.51,599.92,618.04,49.48,0000 0000 0000 0000 000000
2015-12-10 10:25:21,0.07,10.19,0.00,11.99,16.06,20.08,15.11,52.23,1015.15,2071.02,1269.37,1524.99,1700.98,600.02,618.11,49.53,0000 0000 0000 0000 000000
2015-12-10 10:30:22,0.15,10.19,0.00,12.02,16.07,20.03,15.17,52.15,1015.15,2071.01,1268.89,1524.29,1700.20,599.88,618.00,49.58,0000 0000 0000 0000 000000
2015-12-10 10:35:24,0.19,10.20,0.00,12.00,16.07,20.07,15.28,52.27,1015.13,2071.01,1267.86,1523.60,1699.43,600.17,618.30,49.63,0000 0000 0000 0000 000000
2015-12-10 10:40:25,0.10,10.21,0.00,11.99,16.07,20.04,15.19,52.07,1015.06,2071.02,1267.04,1522.99,1698.80,599.72,617.76,49.68,0000 0000 0000 0000 000000
2015-12-10 10:45:26,0.17,10.22,0.00,12.01,16.07,20.08,15.17,52.16,1015.04,2071.00,1266.42,1522.25,1698.02,600.06,618.19,49.73,0000 0000 0000 0000 000000
2015-12-10 10:50:28,0.18,10.23,0.00,12.02,16.08,20.04,15.21,52.20,1014.78,2071.01,1265.31,1521.60,1697.20,599.90,617.74,49.78,0000 0000 0000 0000 000000
2015-12-10 10:55:29,0.13,10.24,0.00,12.02,16.09,20.00,15.14,52.25,1014.69,2071.01,1264.33,1521.00,1696.58,599.89,617.75,49.83,0000 0000 0000 0000 000000
2015-12-10 11:00:31,0.17,10.24,0.00,12.00,16.09,20.03,15.22,52.27,1014.68,2071.02,1263.73,1520.17,1695.59,599.94,617.86,49.88,0000 0000 0000 0000 000000
2015-12-10 11:05:32,0.22,10.25,0.00,11.99,16.09,20.08,15.22,52.17,1014.70,2071.01,1262.38,1519.31,1694.69,600.00,617.91,49.93,0000 0000 0000 0000 000000
2015-12-10 11:10:33,0.32,10.27,0.00,12.01,16.09,20.08,15.15,52.12,1014.67,2071.02,1260.82,1517.96,1693.27,599.80,617.67,49.98,0000 0000 0000 0000 000000
2015-12-10 11:15:35,0.34,10.29,0.00,12.04,16.09,20.12,15.16,52.17,1014.67,2071.02,1258.93,1516.47,1691.58,599.75,617.51,50.03,0000 0000 0000 0000 000000
2015-12-10 11:20:36,0.26,10.30,0.00,12.04,16.09,20.05,15.23,52.32,1014.66,2071.01,1257.32,1515.34,1690.36,600.23,618.09,50.08,0000 0000 0000 0000 000000
2015-12-10 11:25:37,0.25,10.31,0.00,12.03,16.09,20.03,15.21,52.22,1014.66,2071.01,1255.81,1514.14,1689.09,600.16,617.89,50.13,0000 0000 0000 0000 000000
2015-12-10 11:30:39,0.24,10.32,0.00,12.03,16.09,20.06,15.09,52.14,1014.66,2071.01,1254.50,1513.16,1687.99,599.85,617.57,50.18,0000 0000 0000 0000 000000
2015-12-10 11:35:40,0.22,10.34,0.00,12.05,16.09,20.05,15.26,52.35,1014.66,2071.01,1253.47,1512.18,1686.89,600.09,617.83,50.23,0000 0000 0000 0000 000000
2015-12-10 11:40:42,0.40,10.35,0.00,12.06,16.11,20.11,15.23,52.21,1014.65,2071.00,1251.39,1510.69,1685.34,600.05,617.78,50.29,0000 0000 0000 0000 000000
2015-12-10 11:45:43,0.21,10.37,0.00,12.07,16.12,20.09,15.11,52.40,1014.66,2071.00,1249.94,1509.58,1684.09,600.01,617.77,50.34,0000 0000 0000 0000 000000
2015-12-10 11:50:44,0.17,10.38,0.00,12.06,16.12,20.11,15.11,52.23,1014.64,2071.00,1249.01,1508.81,1683.14,599.83,617.57,50.39,0000 0000 0000 0000 000000
2015-12-10 11:55:46,0.32,10.39,0.00,12.06,16.12,20.11,15.23,52.34,1014.64,2071.00,1247.64,1507.66,1681.93,600.05,617.87,50.44,0000 0000 0000 0000 000000
2015-12-10 12:00:47,0.19,10.40,0.00,12.09,16.12,20.11,15.22,52.23,1014.53,2071.00,1246.27,1506.74,1680.96,599.95,617.44,50.49,0000 0000 0000 0000 000000
2015-12-10 12:05:49,0.16,10.41,0.00,12.08,16.14,20.12,15.20,52.32,1014.39,2071.00,1245.24,1506.00,1680.08,600.22,617.70,50.54,0000 0000 0000 0000 000000
2015-12-10 12:10:50,0.20,10.42,0.00,12.10,16.14,20.10,15.17,52.47,1014.26,2071.00,1244.45,1505.24,1679.36,599.77,617.10,50.59,0000 0000 0000 0000 000000
2015-12-10 12:15:52,0.19,10.43,0.00,12.09,16.14,20.10,15.17,52.54,1014.23,2071.00,1243.34,1504.48,1678.57,600.27,617.68,50.64,0000 0000 0000 0000 000000
2015-12-10 12:20:54,0.13,10.44,0.00,12.10,16.15,20.10,15.17,52.46,1014.19,2071.01,1242.18,1503.98,1677.91,600.04,617.37,50.69,0000 0000 0000 0000 000000
2015-12-10 12:25:55,0.15,10.45,0.00,12.12,16.17,20.12,15.14,52.43,1014.18,2071.01,1241.67,1503.23,1677.07,599.87,617.16,50.74,0000 0000 0000 0000 000000
2015-12-10 12:30:56,0.23,10.46,0.00,12.13,16.18,20.11,15.29,52.42,1014.18,2071.00,1240.59,1502.20,1676.10,600.17,617.49,50.79,0000 0000 0000 0000 000000
2015-12-10 12:35:58,0.21,10.47,0.00,12.15,16.19,20.17,15.18,52.38,1014.18,2071.00,1239.48,1501.36,1675.17,599.99,617.24,50.84,0000 0000 0000 0000 000000
2015-12-10 12:40:59,0.20,10.48,0.00,12.15,16.21,20.17,15.25,52.61,1014.13,2071.00,1238.14,1500.54,1674.27,600.18,617.51,50.89,0000 0000 0000 0000 000000
2015-12-10 12:46:01,0.14,10.49,0.00,12.16,16.22,20.18,15.22,52.73,1014.09,2071.00,1237.27,1499.93,1673.55,600.00,617.19,50.94,0000 0000 0000 0000 000000
2015-12-10 12:51:02,0.17,10.50,0.00,12.18,16.24,20.18,15.20,52.61,1013.96,2071.01,1236.39,1499.10,1672.88,599.87,616.85,50.99,0000 0000 0000 0000 000000
2015-12-10 12:56:03,0.16,10.50,0.00,12.17,16.26,20.22,15.17,52.60,1013.82,2071.00,1235.71,1498.43,1672.04,599.75,616.73,51.05,0000 0000 0000 0000 000000